RH
88 92 96 96 92 89 91 86 82 76 71 67 68 72 74 75 66 67 74 72 74 77 72 73 68 66 70 71 67 68 68 75 83 73 73 71 74 76 78 80 79 76 80
87 91 92 94 93 94 93 91 88 85 80 74 69 73 81 81 77 74 76 81 87 86 83 81 77 76 76 74 74 81 79 78 83 79 78 80 84 86 88 88 86 89 89
92 94 97 95 87 91 92 91 82 87 88 84 80 73 73 75 79 81 80 80 82 87 84 84 80 82 81 82 87 86 88 86 90 95 84 88 89 91 99 96 92 94 97
79 92 95 96 90 89 88 85 89 87 91 89 85 83 80 76 78 75 74 83 87 85 83 82 81 82 81 80 84 84 85 90 99 98 95 98 99 95 100 100 100 100 98
64 74 88 91 91 91 90 88 90 90 88 86 85 83 82 80 75 78 78 75 78 78 78 80 79 78 77 75 78 81 86 90 94 94 98 100 100 100 98 99 100 100 100
62 66 63 81 92 92 92 92 92 92 90 87 83 81 82 79 74 70 72 76 74 75 77 78 77 75 74 72 72 73 78 88 93 97 97 97 98 99 100 100 100 99 99
63 61 66 61 72 83 87 90 90 90 91 90 86 86 81 80 79 75 71 68 70 73 74 74 76 75 73 74 73 77 84 92 95 97 98 98 100 100 99 100 100 98 98
85 83 86 88 73 63 73 79 83 86 87 87 86 86 85 84 81 79 75 72 72 73 76 77 78 80 76 77 83 91 100 100 100 100 100 100 100 100 100 100 98 95 99
88 90 90 91 92 85 72 70 72 75 78 82 84 86 86 85 84 82 80 80 82 83 84 87 86 85 85 87 97 100 100 100 100 100 100 99 99 100 99 99 98 97 98
92 94 97 95 98 99 98 88 69 72 75 79 82 84 87 88 87 86 83 84 90 96 100 100 100 100 100 100 100 99 98 99 99 99 98 98 98 97 97 96 96 97 97
95 97 98 99 100 100 100 98 80 74 77 84 94 99 99 98 99 99 92 91 94 100 100 100 100 100 100 100 100 98 96 99 99 96 96 97 96 97 96 95 86 86 88
97 97 99 100 100 99 100 100 100 100 99 100 100 100 100 100 100 100 100 100 100 100 100 100 100 100 100 100 98 97 97 96 98 97 97 96 96 96 97 96 96 96 96
98 99 100 100 100 100 99 100 100 99 100 100 100 100 100 100 100 100 100 99 100 99 100 99 99 99 100 100 95 97 97 96 97 97 98 96 97 97 96 96 95 94 90
98 99 99 99 99 100 100 100 100 100 100 100 99 99 100 100 100 100 100 100 100 98 96 100 99 95 94 95 96 97 96 96 96 97 97 97 95 95 95 87 87 84 84
98 98 98 98 97 96 100 100 100 100 100 99 100 99 96 97 100 97 99 100 100 98 98 98 96 98 98 97 97 96 95 95 95 95 95 95 93 86 83 70 83 82 83
96 98 100 99 98 96 92 97 99 99 100 97 96 98 99 99 97 96 96 97 97 97 98 97 97 97 96 97 98 98 96 96 96 86 86 85 82 85 85 75 73 79 86
100 100 98 98 98 98 97 96 93 100 93 96 97 96 97 96 97 98 97 96 95 95 96 96 96 97 97 97 97 98 100 88 77 86 91 86 79 74 72 82 85 87 90
100 99 98 98 98 97 97 97 96 95 94 96 100 98 97 96 97 98 96 94 96 96 97 96 97 97 97 97 96 98 82 80 82 83 82 76 72 80 84 87 87 88 91
99 100 99 97 97 97 97 97 97 96 96 97 97 95 95 98 99 100 100 97 97 97 97 97 98 99 99 87 85 85 87 82 82 79 84 88 85 80 84 88 93 90 87
97 96 97 97 96 96 96 96 96 96 96 96 97 98 96 93 97 100 100 100 100 100 100 100 94 89 90 84 81 79 80 83 83 90 94 87 78 75 93 97 96 93 94
97 97 96 97 97 96 97 97 97 97 96 97 98 96 94 100 100 100 99 96 99 100 100 93 88 86 84 83 86 85 87 95 95 90 86 83 81 88 99 95 84 82 93
98 93 91 93 93 99 100 100 100 99 99 100 100 98 91 99 100 100 97 88 89 93 95 92 93 89 88 90 93 94 98 97 92 89 84 79 81 95 95 86 88 90 80
83 88 94 98 95 91 95 100 99 95 97 95 93 88 86 85 85 94 100 100 92 83 87 85 86 84 83 92 97 95 92 98 100 94 82 81 85 89 95 97 87 78 83
92 95 97 90 87 93 96 99 100 98 100 100 100 100 100 99 95 87 84 96 97 92 100 98 95 91 92 89 85 87 93 96 93 88 82 81 84 93 93 88 93 97 100
89 92 95 99 99 96 95 98 100 99 99 100 100 97 99 100 100 100 97 90 86 100 100 100 100 100 92 94 100 100 100 93 88 84 83 84 90 95 97 100 100 95 84
81 84 88 86 91 91 84 91 100 100 94 89 98 98 94 88 100 100 98 85 98 100 100 99 99 100 100 100 100 100 94 93 94 96 90 91 95 95 96 94 91 95 95
Wind_Speed
37 31 29 32 32 32 33 36 39 38 40 41 38 39 38 38 42 43 39 40 39 41 42 40 44 43 40 39 41 39 40 33 22 29 32 34 32 33 34 33 35 36 36
39 37 35 29 32 33 36 35 36 39 39 42 43 39 40 40 40 43 42 37 39 38 40 40 43 40 41 41 40 38 37 36 32 30 30 31 34 37 38 37 38 39 39
36 38 37 36 36 36 38 36 38 38 41 40 41 46 45 44 43 42 42 40 40 41 41 40 44 38 40 39 38 36 35 38 36 32 32 29 35 35 34 36 38 36 36
31 36 36 38 40 40 37 35 37 39 38 41 43 44 44 43 44 46 46 42 42 43 43 43 44 42 44 41 38 39 38 34 31 31 31 27 28 34 34 27 28 36 35
26 32 36 41 41 41 41 42 37 40 40 40 40 42 42 44 46 44 45 46 45 45 44 44 44 45 46 46 39 38 34 33 32 31 28 21 23 18 25 30 29 26 26
21 32 28 33 36 40 40 40 41 42 43 39 45 42 41 45 48 49 46 43 44 43 43 42 42 43 45 47 48 47 43 39 36 30 29 26 28 28 27 25 19 10 3
20 20 23 30 32 38 39 38 41 43 41 45 44 42 46 45 46 47 51 51 40 39 39 37 37 43 47 48 49 49 46 43 45 39 35 27 18 22 22 17 20 16 9
22 24 26 28 18 30 34 38 40 40 41 43 44 46 42 44 47 49 51 50 45 42 39 41 40 38 42 42 38 31 22 19 17 16 13 10 9 11 14 13 17 14 11
29 28 27 23 23 28 24 35 41 40 38 39 39 37 41 44 42 46 47 48 42 36 36 35 34 36 35 34 33 23 18 20 22 24 28 27 24 21 18 16 15 12 6
31 32 30 26 24 26 29 32 39 39 40 35 31 33 35 34 39 42 41 40 35 28 19 17 15 20 19 23 27 28 28 25 27 26 25 23 20 18 14 14 12 12 5
28 28 27 26 25 25 30 31 22 30 32 30 27 18 16 16 16 15 33 34 34 25 18 15 14 15 18 20 22 25 28 29 29 30 25 23 21 18 19 15 13 9 6
24 25 25 26 23 23 25 24 12 2 20 22 22 17 12 8 8 10 14 22 25 28 26 28 30 30 31 32 34 35 31 29 26 28 25 22 16 14 12 9 7 4 3
20 20 22 24 26 24 25 25 16 8 10 10 16 18 20 24 27 26 30 33 34 38 35 40 39 38 33 35 36 28 32 29 22 21 20 19 14 11 10 9 7 6 5
19 20 22 24 28 32 28 28 24 19 17 16 13 21 22 26 26 26 32 38 45 42 41 34 37 41 38 29 28 26 29 28 24 20 18 16 13 12 12 10 10 10 7
21 21 21 22 24 32 42 35 31 35 25 23 22 18 21 22 25 28 27 30 32 38 30 34 30 17 28 26 25 26 24 23 24 19 16 14 14 13 13 11 11 11 13
20 21 22 22 21 24 28 38 47 45 46 45 40 33 38 29 39 35 33 29 29 26 24 25 24 24 18 20 20 23 23 21 20 18 15 14 14 13 12 13 14 15 14
22 22 23 24 23 22 22 22 26 38 47 44 42 39 37 31 33 35 31 33 33 33 23 23 19 23 22 21 21 18 19 20 17 17 15 14 13 14 15 15 14 14 11
24 25 24 24 23 24 25 25 23 23 24 29 39 38 33 34 25 27 30 33 34 28 23 25 20 21 20 20 18 18 18 18 18 17 14 12 12 13 15 14 14 15 13
25 24 25 27 26 25 24 23 22 23 23 22 25 33 29 28 29 29 27 30 26 23 21 24 22 21 21 23 20 20 18 18 15 13 12 13 12 12 13 13 13 13 13
28 27 25 24 23 21 21 22 22 23 22 22 23 22 23 26 25 25 25 29 27 22 21 21 21 20 19 17 16 14 13 13 12 11 11 11 10 9 12 12 13 14 13
24 25 25 23 21 20 19 20 20 21 21 22 24 24 22 23 21 22 25 27 25 22 20 18 17 17 15 13 12 11 10 10 9 8 8 8 7 10 11 10 11 12 14
20 19 21 22 23 21 19 19 19 19 19 20 21 22 21 23 22 21 23 22 19 17 14 12 14 13 11 10 9 7 7 7 6 7 7 6 5 7 8 10 11 13 15
22 22 21 20 20 22 23 20 20 21 20 19 18 19 19 19 18 19 20 17 15 13 9 8 9 9 6 5 5 4 5 6 7 9 9 8 7 6 7 10 12 13 15
21 21 19 21 21 22 22 21 20 20 20 20 19 18 18 17 16 15 12 11 10 10 8 9 7 7 6 5 4 2 4 6 10 13 13 11 5 4 7 9 11 14 15
20 21 21 20 20 20 20 21 19 19 19 20 18 16 17 16 13 11 9 7 5 8 8 6 4 6 7 6 7 6 9 12 12 9 6 4 3 3 5 8 11 13 15
18 18 18 18 18 17 16 16 17 16 13 13 14 12 10 8 9 7 6 6 4 3 3 5 6 6 7 7 8 11 12 11 12 13 11 8 3 3 6 8 10 13 17
Wind_Direction
195 202 206 205 207 211 211 211 214 216 216 217 220 223 226 229 230 229 231 232 233 235 238 238 242 243 242 241 245 245 245 243 247 255 256 259 249 248 254 258 262 256 259
194 197 207 209 208 210 215 215 214 216 218 219 221 224 225 225 227 227 226 226 227 230 232 231 238 238 238 239 240 237 239 241 241 251 246 244 249 256 260 261 258 258 258
190 195 200 207 214 217 219 218 223 222 219 219 221 223 226 226 227 229 228 227 228 230 231 230 234 231 232 234 234 237 239 242 241 246 253 249 248 249 248 248 252 255 259
192 195 200 203 209 216 222 227 223 223 221 223 223 224 225 227 229 229 229 229 229 231 233 233 234 232 233 236 235 237 238 237 236 241 249 245 236 247 243 236 238 244 247
207 199 205 207 209 211 214 220 225 224 225 224 225 226 225 226 227 226 227 230 232 235 236 235 235 235 236 238 237 240 240 238 238 244 242 229 222 213 217 232 229 228 227
247 235 220 208 207 211 213 213 217 225 227 226 229 228 227 228 230 228 225 227 230 231 233 233 234 238 242 245 247 248 243 238 238 238 238 235 232 226 228 218 199 175 183
347 1 258 235 214 214 215 213 216 219 220 224 229 230 232 233 234 234 233 231 231 230 233 235 238 242 245 247 249 249 245 240 239 242 242 241 218 213 209 192 192 182 150
0 353 352 1 317 242 216 213 219 220 219 221 224 227 231 234 235 235 236 237 235 236 237 238 238 239 243 242 241 235 236 245 249 242 217 153 160 168 184 175 144 111 108
350 345 341 339 340 323 299 222 222 223 221 222 224 227 228 233 235 235 235 235 235 235 236 236 238 239 237 231 224 193 145 110 108 118 116 111 102 102 112 123 84 88 78
341 336 333 335 335 327 318 314 232 222 221 220 220 223 225 227 234 234 233 228 221 214 214 222 226 223 206 205 193 157 115 116 111 103 102 98 95 97 87 95 96 80 70
334 335 337 338 337 338 330 325 279 219 207 201 196 192 204 214 221 231 232 225 214 184 165 142 142 160 157 157 152 139 126 125 116 110 99 89 87 83 90 94 97 107 108
342 344 346 347 349 352 354 344 348 139 166 154 146 129 119 119 158 169 189 200 177 144 112 108 109 115 116 120 120 116 116 113 107 103 99 94 93 88 95 95 82 74 57
2 6 7 11 13 18 18 8 13 67 68 85 98 87 75 74 79 97 120 119 114 107 107 108 101 94 88 101 110 107 112 103 95 87 89 92 91 86 76 64 57 36 360
18 20 20 29 35 38 40 34 30 31 63 60 67 97 93 89 81 82 91 94 104 103 108 92 95 108 104 96 92 95 93 99 93 87 85 90 85 74 68 54 49 24 11
28 30 31 35 46 56 57 53 54 55 66 73 66 59 88 89 84 100 98 97 100 107 106 103 100 83 94 95 87 91 86 84 86 86 81 75 69 65 51 35 35 24 18
40 37 35 38 40 57 66 70 61 63 70 77 78 78 73 86 98 95 90 96 95 92 82 87 87 88 80 86 88 83 85 83 82 83 76 72 67 58 50 37 30 28 23
51 48 46 45 39 41 45 52 72 68 73 69 70 73 75 71 76 86 99 97 93 90 78 76 75 84 90 85 83 80 84 87 82 80 74 64 57 49 40 34 26 23 13
55 56 60 56 55 53 57 58 53 58 60 58 67 71 70 75 69 78 89 93 74 73 79 79 74 74 78 82 81 87 83 77 75 73 68 57 48 48 43 30 20 11 1
56 52 58 58 55 57 58 56 60 64 62 62 61 69 72 69 69 70 74 78 79 76 74 74 76 77 76 82 85 84 82 77 75 71 60 55 46 41 36 23 15 7 1
57 60 61 62 61 55 56 61 64 66 63 62 60 58 63 68 57 56 63 67 70 69 71 75 82 87 87 83 77 77 77 75 70 68 61 49 36 33 29 18 15 8 356
62 63 65 64 64 66 62 62 65 67 67 64 65 68 73 70 66 60 62 69 72 77 78 86 85 81 79 77 77 76 75 76 68 58 45 35 26 26 19 12 4 356 353
63 61 62 63 67 62 61 61 62 65 66 67 66 74 79 75 71 68 70 71 73 75 78 86 87 80 77 80 81 80 73 59 36 19 1 347 3 13 2 355 357 356 350
68 70 65 62 62 67 68 67 67 71 73 72 72 73 76 79 78 77 78 77 72 67 65 67 64 59 61 77 61 41 35 22 353 337 339 343 335 335 351 352 348 342 343
73 72 66 68 74 74 74 72 74 77 79 81 81 85 89 84 81 78 74 75 76 73 66 60 50 46 40 17 359 3 356 344 332 325 317 310 312 334 343 338 345 344 341
73 73 74 73 73 75 76 74 75 77 78 76 73 84 85 83 84 83 75 65 90 83 85 77 49 21 2 17 16 9 343 332 323 330 349 351 336 344 340 341 342 332 329
70 72 71 71 72 73 73 76 74 73 74 73 69 76 70 72 90 90 54 47 82 75 26 9 12 30 5 6 352 336 332 337 338 332 327 319 300 325 334 325 327 328 329